Location: DarkSkies Observatory
(42.5924°N, 71.9747°W)
Time: 10:35:16
(UTC-05:00)

Hubble Space Telescope - Visible Passes

Search period start: 18 November 2017 00:00
Search period end: 28 November 2017 00:00
Orbit: 537 x 541 km, 28.5° (Epoch: 17 November)

Date Brightness Start Highest point End Pass type
(mag) Time Alt. Az. Time Alt. Az. Time Alt. Az.
18 Nov 3.5 06:09:18 10° SSW 06:10:34 11° S 06:11:49 10° SSE visible
19 Nov 3.4 05:58:53 10° SSW 06:00:12 11° S 06:01:31 10° SSE visible
20 Nov 3.4 05:48:37 10° SSW 05:49:51 11° S 05:51:05 10° SSE visible
21 Nov 3.4 05:38:30 10° SSW 05:39:29 11° S 05:40:28 10° S visible
22 Nov 3.5 05:28:53 10° S 05:29:07 10° S 05:29:21 10° S visible
